User: anonymous   Login
Location: Laterina
(43.5167°N, 11.7167°E)
Time: 03:25:31
(UTC+00:00)
Language:

Abrixas rocket - Orbit

View from above orbital plane
View from above orbital plane
View from above satellite
View from above satellite

Ground track
Ground track

The orbit data is extracted from the following two-line orbital elements,

1 25723U 99022C   20338.19244661  .00073121  00000-0  32862-3 0  9998
2 25723  48.4084 152.6353 0001588 181.7937 178.3014 15.83341570204302
Epoch (UTC): 03 December 2020 04:37:07
Eccentricity: 0.0001588
inclination: 48.4084°
perigee height: 320 km
apogee height: 322 km
right ascension of ascending node: 152.6353°
argument of perigee: 181.7937°
revolutions per day: 15.83341570
mean anomaly at epoch: 178.3014°
orbit number at epoch: 20430

The dashed part of the orbit path shows where the satellite is in the earth's shadow,  

DLR